Location: Aghk�ilisa
(40.0189°N, 45.0097°E)
Time: 11:40:42
(UTC+00:00)

CZ-2D R/B - Pass Details

Date: 21 October 2019
Orbit: 523 x 538 km, 97.4° (Epoch: 12 November)

Event Time Altitude Azimuth Distance (km) Brightness Sun altitude
Exits shadow 16:16:35 14° 192° (SSW) 1,526 5.6 -24.4°
Maximum altitude 16:19:36 43° 261° (W) 758 4.4 -25.0°
Drops below altitude 10° 16:23:19 10° 334° (NNW) 1,797 6.3 -25.7°
Sets 16:25:31 0° 341° (NNW) 2,695 7.2 -26.1°
